Location: Guferjoch
(46.7462°N, 8.4506°E)
Time: 23:54:46
(UTC+00:00)

SL-8 R/B - Pass Details

Date: 14 July 2020
Orbit: 656 x 667 km, 48.4° (Epoch: 14 August)

Event Time Altitude Azimuth Distance (km) Brightness Sun altitude
Exits shadow 01:46:36 16° 256° (WSW) 1,724 5.4 -15.2°
Maximum altitude 01:50:29 87° 345° (NNW) 669 3.7 -14.8°
Drops below altitude 10° 01:55:18 10° 75° (ENE) 2,080 7.0 -14.4°
Sets 01:57:39 0° 76° (ENE) 2,991 7.9 -14.1°
